Time,TemperatureF,DewpointF,PressureIn,WindDirection,WindDirectionDegrees,WindSpeedMPH,WindSpeedGustMPH,Humidity,HourlyPrecipIn,Conditions,Clouds,dailyrainin,SoftwareType,DateUTC
2013-05-29 00:01:00,49.3,32.0,30.00,NW,315,3.4,9.4,51,0.00,,,0.00,WUHU216HW,2013-05-29 07:01:00,
2013-05-29 00:06:00,50.9,32.5,29.99,West,270,6.9,9.4,49,0.00,,,0.00,WUHU216HW,2013-05-29 07:06:00,
2013-05-29 00:11:00,52.2,33.0,30.00,West,270,4.9,11.0,48,0.00,,,0.00,WUHU216HW,2013-05-29 07:11:00,
2013-05-29 00:16:00,53.1,32.8,30.00,West,270,6.3,11.0,46,0.00,,,0.00,WUHU216HW,2013-05-29 07:16:00,
2013-05-29 00:21:00,53.6,33.2,30.00,WNW,293,5.4,10.5,46,0.00,,,0.00,WUHU216HW,2013-05-29 07:21:00,
2013-05-29 00:26:00,53.8,33.4,30.00,West,270,4.0,10.5,46,0.00,,,0.00,WUHU216HW,2013-05-29 07:26:00,
2013-05-29 00:31:00,53.6,33.2,30.00,WNW,293,5.1,6.3,46,0.00,,,0.00,WUHU216HW,2013-05-29 07:31:00,
2013-05-29 00:36:00,53.6,33.2,30.01,WNW,293,4.0,6.5,46,0.00,,,0.00,WUHU216HW,2013-05-29 07:36:00,
2013-05-29 00:41:00,53.6,33.2,30.01,West,270,4.0,7.4,46,0.00,,,0.00,WUHU216HW,2013-05-29 07:41:00,
2013-05-29 00:46:00,53.5,33.0,30.01,West,270,4.3,7.4,46,0.00,,,0.00,WUHU216HW,2013-05-29 07:46:00,
2013-05-29 00:51:00,53.3,32.3,30.01,WSW,248,2.2,4.7,45,0.00,,,0.00,WUHU216HW,2013-05-29 07:51:00,
2013-05-29 00:56:00,53.1,32.2,30.01,WNW,293,1.8,4.5,45,0.00,,,0.00,WUHU216HW,2013-05-29 07:56:00,
2013-05-29 01:01:00,52.7,31.9,30.01,WSW,248,2.2,4.5,45,0.00,,,0.00,WUHU216HW,2013-05-29 08:01:00,
2013-05-29 01:06:00,52.4,31.0,30.01,WSW,248,1.6,3.8,44,0.00,,,0.00,WUHU216HW,2013-05-29 08:06:00,
2013-05-29 01:11:00,52.2,30.8,30.01,WSW,248,2.2,3.4,44,0.00,,,0.00,WUHU216HW,2013-05-29 08:11:00,
2013-05-29 01:16:00,51.8,31.1,30.01,WSW,248,1.6,3.4,45,0.00,,,0.00,WUHU216HW,2013-05-29 08:16:00,
2013-05-29 01:21:00,51.5,30.7,30.01,WSW,248,1.1,3.4,45,0.00,,,0.00,WUHU216HW,2013-05-29 08:21:00,
2013-05-29 01:26:00,51.3,30.6,30.01,SW,225,2.0,3.4,45,0.00,,,0.00,WUHU216HW,2013-05-29 08:26:00,
2013-05-29 01:31:00,50.9,30.2,30.01,SW,225,1.6,2.9,45,0.00,,,0.00,WUHU216HW,2013-05-29 08:31:00,
2013-05-29 01:36:00,50.8,30.1,30.01,SW,225,1.1,1.8,45,0.00,,,0.00,WUHU216HW,2013-05-29 08:36:00,
2013-05-29 01:41:00,50.4,29.8,30.01,West,270,0.4,1.8,45,0.00,,,0.00,WUHU216HW,2013-05-29 08:41:00,
2013-05-29 01:46:00,50.0,29.4,30.01,West,270,1.1,1.6,45,0.00,,,0.00,WUHU216HW,2013-05-29 08:46:00,
2013-05-29 01:51:00,49.7,29.6,30.01,WSW,248,2.2,2.5,46,0.00,,,0.00,WUHU216HW,2013-05-29 08:51:00,
2013-05-29 01:56:00,49.3,29.9,30.01,West,270,2.2,3.1,47,0.00,,,0.00,WUHU216HW,2013-05-29 08:56:00,
2013-05-29 02:01:00,49.1,29.7,30.00,SW,225,1.3,3.1,47,0.00,,,0.00,WUHU216HW,2013-05-29 09:01:00,
2013-05-29 02:06:00,49.0,29.5,30.01,SW,225,0.9,2.2,47,0.00,,,0.00,WUHU216HW,2013-05-29 09:06:00,
2013-05-29 02:11:00,48.6,29.2,30.00,West,270,0.7,2.2,47,0.00,,,0.00,WUHU216HW,2013-05-29 09:11:00,
2013-05-29 02:16:00,48.4,29.0,30.01,West,270,1.1,2.0,47,0.00,,,0.00,WUHU216HW,2013-05-29 09:16:00,
2013-05-29 02:21:00,48.1,29.2,30.00,WSW,248,0.7,2.0,48,0.00,,,0.00,WUHU216HW,2013-05-29 09:21:00,
2013-05-29 02:26:00,47.9,29.0,30.01,WSW,248,0.4,2.0,48,0.00,,,0.00,WUHU216HW,2013-05-29 09:26:00,
2013-05-29 02:31:00,47.5,28.7,30.00,WSW,248,1.8,2.5,48,0.00,,,0.00,WUHU216HW,2013-05-29 09:31:00,
2013-05-29 02:36:00,47.2,29.4,30.01,WSW,248,2.5,4.5,50,0.00,,,0.00,WUHU216HW,2013-05-29 09:36:00,
2013-05-29 02:41:00,47.0,29.7,30.00,WSW,248,3.4,4.5,51,0.00,,,0.00,WUHU216HW,2013-05-29 09:41:00,
2013-05-29 02:46:00,46.8,30.1,30.00,WSW,248,2.0,4.0,52,0.00,,,0.00,WUHU216HW,2013-05-29 09:46:00,
2013-05-29 02:51:00,46.6,30.3,30.00,West,270,2.2,4.0,53,0.00,,,0.00,WUHU216HW,2013-05-29 09:51:00,
2013-05-29 02:56:00,46.4,30.2,30.00,SSW,203,1.1,3.4,53,0.00,,,0.00,WUHU216HW,2013-05-29 09:56:00,
2013-05-29 03:01:00,46.4,29.7,30.01,West,270,0.9,2.2,52,0.00,,,0.00,WUHU216HW,2013-05-29 10:01:00,
2013-05-29 03:06:00,46.1,29.3,30.00,West,270,1.3,2.9,52,0.00,,,0.00,WUHU216HW,2013-05-29 10:06:00,
2013-05-29 03:11:00,46.1,29.3,30.00,WSW,248,1.3,2.9,52,0.00,,,0.00,WUHU216HW,2013-05-29 10:11:00,
2013-05-29 03:16:00,45.9,29.3,30.00,WSW,248,2.2,2.5,52,0.00,,,0.00,WUHU216HW,2013-05-29 10:16:00,
2013-05-29 03:21:00,45.7,29.1,30.00,SSE,158,0.0,2.2,52,0.00,,,0.00,WUHU216HW,2013-05-29 10:21:00,
2013-05-29 03:26:00,45.4,28.3,30.00,SSE,158,0.0,2.2,51,0.00,,,0.00,WUHU216HW,2013-05-29 10:26:00,
2013-05-29 03:31:00,45.0,28.0,30.00,SSE,158,0.0,0.4,51,0.00,,,0.00,WUHU216HW,2013-05-29 10:31:00,
2013-05-29 03:36:00,44.8,28.3,30.00,South,180,1.3,1.3,52,0.00,,,0.00,WUHU216HW,2013-05-29 10:36:00,
2013-05-29 03:41:00,44.5,27.9,30.00,South,180,0.9,1.8,52,0.00,,,0.00,WUHU216HW,2013-05-29 10:41:00,
2013-05-29 03:46:00,44.3,27.7,30.00,SSE,158,0.7,1.8,52,0.00,,,0.00,WUHU216HW,2013-05-29 10:46:00,
2013-05-29 03:51:00,43.9,27.5,30.00,South,180,0.9,1.6,52,0.00,,,0.00,WUHU216HW,2013-05-29 10:51:00,
2013-05-29 03:56:00,43.6,27.1,30.00,South,180,0.4,1.6,52,0.00,,,0.00,WUHU216HW,2013-05-29 10:56:00,
2013-05-29 04:01:00,43.2,26.7,30.00,South,180,0.7,1.8,52,0.00,,,0.00,WUHU216HW,2013-05-29 11:01:00,
2013-05-29 04:06:00,42.8,26.5,30.00,SSE,158,0.4,1.8,52,0.00,,,0.00,WUHU216HW,2013-05-29 11:06:00,
2013-05-29 04:11:00,42.7,26.3,30.00,SSE,158,0.0,1.1,52,0.00,,,0.00,WUHU216HW,2013-05-29 11:11:00,
2013-05-29 04:16:00,42.3,25.5,30.00,SSE,158,0.0,0.9,51,0.00,,,0.00,WUHU216HW,2013-05-29 11:16:00,
2013-05-29 04:21:00,42.1,25.8,30.00,SSE,158,0.0,0.0,52,0.00,,,0.00,WUHU216HW,2013-05-29 11:21:00,
2013-05-29 04:26:00,41.8,25.4,30.00,SSE,158,0.9,0.9,52,0.00,,,0.00,WUHU216HW,2013-05-29 11:26:00,
2013-05-29 04:31:00,41.4,25.5,30.00,SE,135,0.0,1.6,53,0.00,,,0.00,WUHU216HW,2013-05-29 11:31:00,
2013-05-29 04:36:00,41.0,25.1,30.00,ESE,113,0.0,2.0,53,0.00,,,0.00,WUHU216HW,2013-05-29 11:36:00,
2013-05-29 04:41:00,40.7,24.8,30.00,SSE,158,0.2,2.0,53,0.00,,,0.00,WUHU216HW,2013-05-29 11:41:00,
2013-05-29 04:46:00,40.3,24.5,30.00,SSE,158,1.1,1.1,53,0.00,,,0.00,WUHU216HW,2013-05-29 11:46:00,
2013-05-29 04:51:00,40.0,24.1,30.00,SSE,158,0.4,1.1,53,0.00,,,0.00,WUHU216HW,2013-05-29 11:51:00,
2013-05-29 04:56:00,40.0,24.6,30.00,SE,135,0.0,1.1,54,0.00,,,0.00,WUHU216HW,2013-05-29 11:56:00,
2013-05-29 05:01:00,39.8,24.4,30.00,SE,135,0.0,0.4,54,0.00,,,0.00,WUHU216HW,2013-05-29 12:01:00,
2013-05-29 05:06:00,39.6,24.2,30.00,SSE,158,0.0,0.7,54,0.00,,,0.00,WUHU216HW,2013-05-29 12:06:00,
2013-05-29 05:11:00,39.2,23.9,30.00,SSE,158,0.0,0.7,54,0.00,,,0.00,WUHU216HW,2013-05-29 12:11:00,
2013-05-29 05:16:00,39.1,24.1,30.01,SSE,158,0.0,0.2,55,0.00,,,0.00,WUHU216HW,2013-05-29 12:16:00,
2013-05-29 05:21:00,38.9,23.9,30.01,South,180,0.4,0.7,55,0.00,,,0.00,WUHU216HW,2013-05-29 12:21:00,
2013-05-29 05:26:00,38.9,24.4,30.01,SSE,158,0.7,1.1,56,0.00,,,0.00,WUHU216HW,2013-05-29 12:26:00,
2013-05-29 05:31:00,38.9,24.4,30.01,South,180,0.7,1.3,56,0.00,,,0.00,WUHU216HW,2013-05-29 12:31:00,
2013-05-29 05:36:00,38.9,24.4,30.01,SSE,158,0.4,1.3,56,0.00,,,0.00,WUHU216HW,2013-05-29 12:36:00,
2013-05-29 05:41:00,38.9,24.8,30.01,SSE,158,0.7,1.1,57,0.00,,,0.00,WUHU216HW,2013-05-29 12:41:00,
2013-05-29 05:46:00,38.7,24.7,30.01,ESE,113,0.4,1.3,57,0.00,,,0.00,WUHU216HW,2013-05-29 12:46:00,
2013-05-29 05:51:00,38.7,24.7,30.01,SE,135,0.2,1.3,57,0.00,,,0.00,WUHU216HW,2013-05-29 12:51:00,
2013-05-29 05:56:00,38.7,25.1,30.01,SE,135,0.0,1.3,58,0.00,,,0.00,WUHU216HW,2013-05-29 12:56:00,
2013-05-29 06:01:00,38.9,25.3,30.01,NNW,338,0.2,0.7,58,0.00,,,0.00,WUHU216HW,2013-05-29 13:01:00,
2013-05-29 06:06:00,39.1,25.8,30.01,West,270,1.8,1.8,59,0.00,,,0.00,WUHU216HW,2013-05-29 13:06:00,
2013-05-29 06:11:00,39.6,27.5,30.01,WSW,248,3.6,6.7,62,0.00,,,0.00,WUHU216HW,2013-05-29 13:11:00,
2013-05-29 06:16:00,40.7,28.6,30.01,SSW,203,2.7,6.7,62,0.00,,,0.00,WUHU216HW,2013-05-29 13:16:00,
2013-05-29 06:21:00,41.8,29.3,30.01,WSW,248,3.1,6.3,61,0.00,,,0.00,WUHU216HW,2013-05-29 13:21:00,
2013-05-29 06:26:00,42.8,29.9,30.01,West,270,3.4,6.3,60,0.00,,,0.00,WUHU216HW,2013-05-29 13:26:00,
2013-05-29 06:31:00,43.6,30.6,30.01,WSW,248,3.6,6.7,60,0.00,,,0.00,WUHU216HW,2013-05-29 13:31:00,
2013-05-29 06:36:00,44.1,31.1,30.01,West,270,5.1,7.6,60,0.00,,,0.00,WUHU216HW,2013-05-29 13:36:00,
2013-05-29 06:41:00,45.0,31.6,30.02,West,270,2.9,7.6,59,0.00,,,0.00,WUHU216HW,2013-05-29 13:41:00,
2013-05-29 06:46:00,45.7,31.8,30.02,WSW,248,4.3,5.1,58,0.00,,,0.00,WUHU216HW,2013-05-29 13:46:00,
2013-05-29 06:51:00,46.1,31.6,30.02,SE,135,2.5,4.5,57,0.00,,,0.00,WUHU216HW,2013-05-29 13:51:00,
2013-05-29 06:56:00,46.8,32.3,30.02,SW,225,4.0,5.1,57,0.00,,,0.00,WUHU216HW,2013-05-29 13:56:00,
2013-05-29 07:01:00,47.3,32.4,30.02,WNW,293,2.7,7.6,56,0.00,,,0.00,WUHU216HW,2013-05-29 14:01:00,
2013-05-29 07:06:00,48.1,32.6,30.02,WSW,248,1.8,7.6,55,0.00,,,0.00,WUHU216HW,2013-05-29 14:06:00,
2013-05-29 07:11:00,49.0,32.9,30.02,WSW,248,3.4,5.8,54,0.00,,,0.00,WUHU216HW,2013-05-29 14:11:00,
2013-05-29 07:16:00,49.9,33.4,30.01,WSW,248,2.2,5.8,53,0.00,,,0.00,WUHU216HW,2013-05-29 14:16:00,
2013-05-29 07:21:00,50.8,33.8,30.02,West,270,2.5,4.5,52,0.00,,,0.00,WUHU216HW,2013-05-29 14:21:00,
2013-05-29 07:26:00,51.7,34.1,30.02,SW,225,4.0,4.5,51,0.00,,,0.00,WUHU216HW,2013-05-29 14:26:00,
2013-05-29 07:31:00,52.9,33.7,30.02,SW,225,3.4,5.4,48,0.00,,,0.00,WUHU216HW,2013-05-29 14:31:00,
2013-05-29 07:36:00,54.2,33.8,30.02,NW,315,1.8,5.4,46,0.00,,,0.00,WUHU216HW,2013-05-29 14:36:00,
2013-05-29 07:41:00,55.6,35.0,30.02,NNW,338,2.7,5.1,46,0.00,,,0.00,WUHU216HW,2013-05-29 14:41:00,
2013-05-29 07:46:00,57.2,35.5,30.02,NW,315,3.1,8.3,44,0.00,,,0.00,WUHU216HW,2013-05-29 14:46:00,
2013-05-29 07:51:00,58.7,36.2,30.02,NW,315,1.6,8.3,43,0.00,,,0.00,WUHU216HW,2013-05-29 14:51:00,
2013-05-29 07:56:00,60.8,36.4,30.02,West,270,5.6,6.5,40,0.00,,,0.00,WUHU216HW,2013-05-29 14:56:00,
2013-05-29 08:01:00,65.2,35.2,30.02,NW,315,4.7,6.5,33,0.00,,,0.00,WUHU216HW,2013-05-29 15:01:00,
2013-05-29 08:06:00,68.9,38.5,30.02,WNW,293,4.7,8.5,33,0.00,,,0.00,WUHU216HW,2013-05-29 15:06:00,
2013-05-29 08:11:00,71.6,34.6,30.02,WNW,293,9.8,9.8,26,0.00,,,0.00,WUHU216HW,2013-05-29 15:11:00,
2013-05-29 08:16:00,72.9,34.7,30.02,WNW,293,4.7,9.8,25,0.00,,,0.00,WUHU216HW,2013-05-29 15:16:00,
2013-05-29 08:21:00,74.0,32.5,30.02,WSW,248,6.5,9.8,22,0.00,,,0.00,WUHU216HW,2013-05-29 15:21:00,
2013-05-29 08:26:00,73.4,33.1,30.02,WSW,248,1.8,7.6,23,0.00,,,0.00,WUHU216HW,2013-05-29 15:26:00,
2013-05-29 08:31:00,72.9,31.6,30.03,West,270,7.8,11.4,22,0.00,,,0.00,WUHU216HW,2013-05-29 15:31:00,
2013-05-29 08:36:00,72.0,30.8,30.03,NW,315,11.4,11.4,22,0.00,,,0.00,WUHU216HW,2013-05-29 15:36:00,
2013-05-29 08:41:00,71.3,31.2,30.02,WNW,293,3.4,11.4,23,0.00,,,0.00,WUHU216HW,2013-05-29 15:41:00,
2013-05-29 08:46:00,70.7,30.8,30.02,NW,315,6.3,9.2,23,0.00,,,0.00,WUHU216HW,2013-05-29 15:46:00,
2013-05-29 08:51:00,70.0,30.2,30.02,NNW,338,8.9,9.2,23,0.00,,,0.00,WUHU216HW,2013-05-29 15:51:00,
2013-05-29 08:56:00,69.5,29.7,30.02,SW,225,5.6,11.0,23,0.00,,,0.00,WUHU216HW,2013-05-29 15:56:00,
2013-05-29 09:01:00,69.7,29.9,30.02,WSW,248,8.7,11.2,23,0.00,,,0.00,WUHU216HW,2013-05-29 16:01:00,
2013-05-29 09:06:00,70.0,31.1,30.02,SW,225,6.3,11.2,24,0.00,,,0.00,WUHU216HW,2013-05-29 16:06:00,
2013-05-29 09:11:00,69.8,30.1,30.02,NNW,338,4.3,10.5,23,0.00,,,0.00,WUHU216HW,2013-05-29 16:11:00,
2013-05-29 09:16:00,70.2,30.3,30.02,NW,315,5.6,11.9,23,0.00,,,0.00,WUHU216HW,2013-05-29 16:16:00,
2013-05-29 09:21:00,70.9,29.9,30.02,WNW,293,6.5,13.2,22,0.00,,,0.00,WUHU216HW,2013-05-29 16:21:00,
2013-05-29 09:26:00,71.5,31.4,30.02,West,270,2.7,14.3,23,0.00,,,0.00,WUHU216HW,2013-05-29 16:26:00,
2013-05-29 09:31:00,71.8,30.7,30.02,WSW,248,9.4,15.7,22,0.00,,,0.00,WUHU216HW,2013-05-29 16:31:00,
2013-05-29 09:36:00,71.5,31.4,30.02,South,180,9.8,17.9,23,0.00,,,0.00,WUHU216HW,2013-05-29 16:36:00,
2013-05-29 09:41:00,71.5,31.4,30.02,SW,225,10.3,17.9,23,0.00,,,0.00,WUHU216HW,2013-05-29 16:41:00,
2013-05-29 09:46:00,72.2,31.0,30.02,NW,315,2.2,17.2,22,0.00,,,0.00,WUHU216HW,2013-05-29 16:46:00,
2013-05-29 09:51:00,72.5,31.3,30.02,SW,225,8.1,17.2,22,0.00,,,0.00,WUHU216HW,2013-05-29 16:51:00,
2013-05-29 09:56:00,73.1,31.8,30.02,SW,225,7.6,10.5,22,0.00,,,0.00,WUHU216HW,2013-05-29 16:56:00,
2013-05-29 10:01:00,73.1,30.8,30.03,NW,315,13.2,15.4,21,0.00,,,0.00,WUHU216HW,2013-05-29 17:01:00,
2013-05-29 10:06:00,72.5,31.3,30.03,South,180,9.8,15.4,22,0.00,,,0.00,WUHU216HW,2013-05-29 17:06:00,
2013-05-29 10:11:00,72.2,31.0,30.02,SSW,203,11.2,14.3,22,0.00,,,0.00,WUHU216HW,2013-05-29 17:11:00,
2013-05-29 10:16:00,72.4,31.2,30.02,WSW,248,8.9,12.8,22,0.00,,,0.00,WUHU216HW,2013-05-29 17:16:00,
2013-05-29 10:21:00,72.7,31.4,30.02,West,270,5.8,12.8,22,0.00,,,0.00,WUHU216HW,2013-05-29 17:21:00,
2013-05-29 10:26:00,72.9,31.6,30.02,WNW,293,6.3,8.9,22,0.00,,,0.00,WUHU216HW,2013-05-29 17:26:00,
2013-05-29 10:31:00,72.9,30.6,30.02,West,270,7.6,13.2,21,0.00,,,0.00,WUHU216HW,2013-05-29 17:31:00,
2013-05-29 10:36:00,72.9,27.9,30.02,NW,315,17.2,17.2,19,0.00,,,0.00,WUHU216HW,2013-05-29 17:36:00,
2013-05-29 10:41:00,72.9,27.9,30.02,WNW,293,12.3,17.2,19,0.00,,,0.00,WUHU216HW,2013-05-29 17:41:00,
2013-05-29 10:46:00,73.1,28.1,30.02,West,270,11.4,18.6,19,0.00,,,0.00,WUHU216HW,2013-05-29 17:46:00,
2013-05-29 10:51:00,72.9,27.9,30.03,NNW,338,9.2,18.6,19,0.00,,,0.00,WUHU216HW,2013-05-29 17:51:00,
2013-05-29 10:56:00,73.3,28.3,30.02,West,270,4.0,18.1,19,0.00,,,0.00,WUHU216HW,2013-05-29 17:56:00,
2013-05-29 11:01:00,73.8,28.7,30.02,West,270,7.2,12.3,19,0.00,,,0.00,WUHU216HW,2013-05-29 18:01:00,
2013-05-29 11:06:00,74.0,28.9,30.02,NNW,338,5.6,12.3,19,0.00,,,0.00,WUHU216HW,2013-05-29 18:06:00,
2013-05-29 11:11:00,74.5,29.3,30.02,WNW,293,7.8,15.4,19,0.00,,,0.00,WUHU216HW,2013-05-29 18:11:00,
2013-05-29 11:16:00,74.5,29.3,30.02,WNW,293,9.6,15.4,19,0.00,,,0.00,WUHU216HW,2013-05-29 18:16:00,
2013-05-29 11:21:00,74.5,27.6,30.02,WNW,293,11.0,14.3,18,0.00,,,0.00,WUHU216HW,2013-05-29 18:21:00,
2013-05-29 11:26:00,74.7,27.8,30.02,SW,225,8.9,13.9,18,0.00,,,0.00,WUHU216HW,2013-05-29 18:26:00,
2013-05-29 11:31:00,73.8,28.7,30.03,SW,225,6.9,16.6,19,0.00,,,0.00,WUHU216HW,2013-05-29 18:31:00,
2013-05-29 11:36:00,73.8,28.7,30.02,West,270,9.4,16.8,19,0.00,,,0.00,WUHU216HW,2013-05-29 18:36:00,
2013-05-29 11:41:00,73.8,30.3,30.02,NNW,338,11.0,16.8,20,0.00,,,0.00,WUHU216HW,2013-05-29 18:41:00,
2013-05-29 11:46:00,73.8,28.7,30.02,NW,315,10.5,19.2,19,0.00,,,0.00,WUHU216HW,2013-05-29 18:46:00,
2013-05-29 11:51:00,73.8,30.3,30.02,WNW,293,9.2,19.2,20,0.00,,,0.00,WUHU216HW,2013-05-29 18:51:00,
2013-05-29 11:56:00,74.5,29.3,30.02,West,270,18.6,18.6,19,0.00,,,0.00,WUHU216HW,2013-05-29 18:56:00,
2013-05-29 12:01:00,74.2,29.0,30.02,WNW,293,7.6,18.6,19,0.00,,,0.00,WUHU216HW,2013-05-29 19:01:00,
2013-05-29 12:06:00,74.2,29.0,30.02,SW,225,7.2,18.6,19,0.00,,,0.00,WUHU216HW,2013-05-29 19:06:00,
2013-05-29 12:11:00,73.8,30.3,30.02,WNW,293,9.2,12.8,20,0.00,,,0.00,WUHU216HW,2013-05-29 19:11:00,
2013-05-29 12:16:00,74.3,29.2,30.02,WNW,293,10.5,15.0,19,0.00,,,0.00,WUHU216HW,2013-05-29 19:16:00,
2013-05-29 12:21:00,74.9,27.9,30.01,West,270,7.8,15.7,18,0.00,,,0.00,WUHU216HW,2013-05-29 19:21:00,
2013-05-29 12:26:00,75.4,30.0,30.01,West,270,12.5,15.7,19,0.00,,,0.00,WUHU216HW,2013-05-29 19:26:00,
2013-05-29 12:31:00,75.6,28.4,30.01,NW,315,14.5,17.7,18,0.00,,,0.00,WUHU216HW,2013-05-29 19:31:00,
2013-05-29 12:36:00,75.8,28.6,30.01,West,270,7.8,17.7,18,0.00,,,0.00,WUHU216HW,2013-05-29 19:36:00,
2013-05-29 12:41:00,76.5,27.5,30.01,WSW,248,11.9,15.0,17,0.00,,,0.00,WUHU216HW,2013-05-29 19:41:00,
2013-05-29 12:46:00,76.0,27.1,30.01,NNW,338,10.3,21.7,17,0.00,,,0.00,WUHU216HW,2013-05-29 19:46:00,
2013-05-29 12:51:00,75.8,28.6,30.01,WNW,293,11.4,22.4,18,0.00,,,0.00,WUHU216HW,2013-05-29 19:51:00,
2013-05-29 12:56:00,76.0,28.8,30.01,WNW,293,19.2,22.4,18,0.00,,,0.00,WUHU216HW,2013-05-29 19:56:00,
2013-05-29 13:01:00,75.2,28.2,30.01,SW,225,11.2,24.2,18,0.00,,,0.00,WUHU216HW,2013-05-29 20:01:00,
2013-05-29 13:06:00,75.2,28.2,30.01,WSW,248,7.2,24.2,18,0.00,,,0.00,WUHU216HW,2013-05-29 20:06:00,
2013-05-29 13:11:00,75.6,28.4,30.00,WNW,293,6.9,15.7,18,0.00,,,0.00,WUHU216HW,2013-05-29 20:11:00,
2013-05-29 13:16:00,76.3,29.1,30.00,SW,225,9.6,14.8,18,0.00,,,0.00,WUHU216HW,2013-05-29 20:16:00,
2013-05-29 13:21:00,76.5,29.2,30.00,SW,225,5.6,20.6,18,0.00,,,0.00,WUHU216HW,2013-05-29 20:21:00,
2013-05-29 13:26:00,77.0,28.0,30.00,SSW,203,8.9,20.6,17,0.00,,,0.00,WUHU216HW,2013-05-29 20:26:00,
2013-05-29 13:31:00,77.2,28.1,30.00,WNW,293,15.7,17.2,17,0.00,,,0.00,WUHU216HW,2013-05-29 20:31:00,
2013-05-29 13:36:00,76.5,27.5,30.00,West,270,11.6,19.5,17,0.00,,,0.00,WUHU216HW,2013-05-29 20:36:00,
2013-05-29 13:41:00,76.7,29.3,30.00,WNW,293,9.4,19.5,18,0.00,,,0.00,WUHU216HW,2013-05-29 20:41:00,
2013-05-29 13:46:00,76.9,27.8,30.00,WSW,248,6.3,17.2,17,0.00,,,0.00,WUHU216HW,2013-05-29 20:46:00,
2013-05-29 13:51:00,76.0,27.1,30.00,West,270,15.4,17.2,17,0.00,,,0.00,WUHU216HW,2013-05-29 20:51:00,
2013-05-29 13:56:00,75.8,28.6,30.00,NNW,338,7.4,16.6,18,0.00,,,0.00,WUHU216HW,2013-05-29 20:56:00,
2013-05-29 14:01:00,75.2,28.2,30.00,WNW,293,7.8,16.8,18,0.00,,,0.00,WUHU216HW,2013-05-29 21:01:00,
2013-05-29 14:06:00,74.9,27.9,30.00,WNW,293,7.6,16.8,18,0.00,,,0.00,WUHU216HW,2013-05-29 21:06:00,
2013-05-29 14:11:00,74.0,27.2,29.99,WNW,293,7.2,13.9,18,0.00,,,0.00,WUHU216HW,2013-05-29 21:11:00,
2013-05-29 14:16:00,73.6,28.5,29.99,NW,315,6.5,13.9,19,0.00,,,0.00,WUHU216HW,2013-05-29 21:16:00,
2013-05-29 14:21:00,73.4,28.5,29.99,West,270,4.3,15.0,19,0.00,,,0.00,WUHU216HW,2013-05-29 21:21:00,
2013-05-29 14:26:00,73.8,28.7,29.99,SSW,203,7.8,15.7,19,0.00,,,0.00,WUHU216HW,2013-05-29 21:26:00,
2013-05-29 14:31:00,74.9,29.5,29.99,West,270,11.0,15.7,19,0.00,,,0.00,WUHU216HW,2013-05-29 21:31:00,
2013-05-29 14:36:00,76.0,28.8,29.99,WSW,248,11.0,15.0,18,0.00,,,0.00,WUHU216HW,2013-05-29 21:36:00,
2013-05-29 14:41:00,75.8,28.6,29.99,WNW,293,12.8,17.2,18,0.00,,,0.00,WUHU216HW,2013-05-29 21:41:00,
2013-05-29 14:46:00,75.4,28.4,29.98,NNW,338,7.8,18.1,18,0.00,,,0.00,WUHU216HW,2013-05-29 21:46:00,
2013-05-29 14:51:00,75.8,28.6,29.98,ESE,113,5.8,18.1,18,0.00,,,0.00,WUHU216HW,2013-05-29 21:51:00,
2013-05-29 14:56:00,76.1,28.9,29.98,NW,315,15.9,16.3,18,0.00,,,0.00,WUHU216HW,2013-05-29 21:56:00,
2013-05-29 15:01:00,76.7,29.3,29.99,WNW,293,6.0,18.6,18,0.00,,,0.00,WUHU216HW,2013-05-29 22:01:00,
2013-05-29 15:06:00,76.3,29.1,29.99,West,270,10.5,18.8,18,0.00,,,0.00,WUHU216HW,2013-05-29 22:06:00,
2013-05-29 15:11:00,76.1,28.9,29.99,SW,225,10.5,18.8,18,0.00,,,0.00,WUHU216HW,2013-05-29 22:11:00,
2013-05-29 15:16:00,76.1,28.9,29.99,West,270,13.6,14.3,18,0.00,,,0.00,WUHU216HW,2013-05-29 22:16:00,
2013-05-29 15:21:00,76.0,28.8,29.98,SW,225,6.3,18.8,18,0.00,,,0.00,WUHU216HW,2013-05-29 22:21:00,
2013-05-29 15:26:00,76.0,28.8,29.98,WNW,293,9.2,18.8,18,0.00,,,0.00,WUHU216HW,2013-05-29 22:26:00,
2013-05-29 15:31:00,76.5,29.2,29.98,WSW,248,11.2,15.0,18,0.00,,,0.00,WUHU216HW,2013-05-29 22:31:00,
2013-05-29 15:36:00,76.5,29.2,29.98,West,270,10.7,18.6,18,0.00,,,0.00,WUHU216HW,2013-05-29 22:36:00,
2013-05-29 15:41:00,76.3,29.1,29.98,NW,315,9.8,18.6,18,0.00,,,0.00,WUHU216HW,2013-05-29 22:41:00,
2013-05-29 15:46:00,76.5,29.2,29.97,NW,315,7.6,14.1,18,0.00,,,0.00,WUHU216HW,2013-05-29 22:46:00,
2013-05-29 15:51:00,76.5,29.2,29.97,WSW,248,6.5,14.1,18,0.00,,,0.00,WUHU216HW,2013-05-29 22:51:00,
2013-05-29 15:56:00,75.6,28.4,29.97,West,270,7.8,15.7,18,0.00,,,0.00,WUHU216HW,2013-05-29 22:56:00,
2013-05-29 16:01:00,74.9,27.9,29.98,WSW,248,9.8,16.1,18,0.00,,,0.00,WUHU216HW,2013-05-29 23:01:00,
2013-05-29 16:06:00,74.5,27.6,29.97,West,270,7.2,16.1,18,0.00,,,0.00,WUHU216HW,2013-05-29 23:06:00,
2013-05-29 16:11:00,74.7,27.8,29.97,West,270,5.8,15.4,18,0.00,,,0.00,WUHU216HW,2013-05-29 23:11:00,
2013-05-29 16:16:00,74.2,27.4,29.97,WSW,248,8.9,15.4,18,0.00,,,0.00,WUHU216HW,2013-05-29 23:16:00,
2013-05-29 16:21:00,74.2,29.0,29.97,SSW,203,4.3,15.0,19,0.00,,,0.00,WUHU216HW,2013-05-29 23:21:00,
2013-05-29 16:26:00,74.2,29.0,29.97,NW,315,4.7,15.0,19,0.00,,,0.00,WUHU216HW,2013-05-29 23:26:00,
2013-05-29 16:31:00,73.8,28.7,29.96,WNW,293,10.7,13.9,19,0.00,,,0.00,WUHU216HW,2013-05-29 23:31:00,
2013-05-29 16:36:00,73.8,28.7,29.97,West,270,6.3,15.9,19,0.00,,,0.00,WUHU216HW,2013-05-29 23:36:00,
2013-05-29 16:41:00,73.1,28.1,29.97,SSE,158,5.4,19.0,19,0.00,,,0.00,WUHU216HW,2013-05-29 23:41:00,
2013-05-29 16:46:00,72.9,27.9,29.97,SW,225,2.0,19.0,19,0.00,,,0.00,WUHU216HW,2013-05-29 23:46:00,
2013-05-29 16:51:00,73.4,28.5,29.97,West,270,4.5,15.7,19,0.00,,,0.00,WUHU216HW,2013-05-29 23:51:00,
2013-05-29 16:56:00,73.8,28.7,29.97,WSW,248,5.4,12.8,19,0.00,,,0.00,WUHU216HW,2013-05-29 23:56:00,
2013-05-29 17:01:00,73.4,28.5,29.97,NW,315,9.4,12.8,19,0.00,,,0.00,WUHU216HW,2013-05-30 00:01:00,
2013-05-29 17:06:00,73.4,28.5,29.97,WSW,248,8.3,16.1,19,0.00,,,0.00,WUHU216HW,2013-05-30 00:06:00,
2013-05-29 17:11:00,73.6,30.3,29.97,South,180,6.9,16.1,20,0.00,,,0.00,WUHU216HW,2013-05-30 00:11:00,
2013-05-29 17:16:00,73.6,30.3,29.97,SSW,203,6.0,12.3,20,0.00,,,0.00,WUHU216HW,2013-05-30 00:16:00,
2013-05-29 17:21:00,73.6,30.3,29.96,SW,225,9.4,12.3,20,0.00,,,0.00,WUHU216HW,2013-05-30 00:21:00,
2013-05-29 17:26:00,73.8,28.7,29.97,West,270,10.3,13.2,19,0.00,,,0.00,WUHU216HW,2013-05-30 00:26:00,
2013-05-29 17:31:00,73.4,28.5,29.97,WSW,248,6.7,13.2,19,0.00,,,0.00,WUHU216HW,2013-05-30 00:31:00,
2013-05-29 17:36:00,72.9,27.9,29.97,SSW,203,11.0,13.2,19,0.00,,,0.00,WUHU216HW,2013-05-30 00:36:00,
2013-05-29 17:41:00,72.5,30.2,29.97,West,270,12.3,12.3,21,0.00,,,0.00,WUHU216HW,2013-05-30 00:41:00,
2013-05-29 17:46:00,72.0,29.8,29.98,West,270,13.6,13.6,21,0.00,,,0.00,WUHU216HW,2013-05-30 00:46:00,
2013-05-29 17:51:00,71.5,29.4,29.97,WSW,248,7.4,15.7,21,0.00,,,0.00,WUHU216HW,2013-05-30 00:51:00,
2013-05-29 17:56:00,71.1,29.1,29.98,WSW,248,13.2,15.7,21,0.00,,,0.00,WUHU216HW,2013-05-30 00:56:00,
2013-05-29 18:01:00,70.9,28.9,29.97,SE,135,4.3,15.7,21,0.00,,,0.00,WUHU216HW,2013-05-30 01:01:00,
2013-05-29 18:06:00,71.1,29.1,29.98,SW,225,11.0,14.3,21,0.00,,,0.00,WUHU216HW,2013-05-30 01:06:00,
2013-05-29 18:11:00,71.3,29.2,29.98,NNW,338,9.4,14.5,21,0.00,,,0.00,WUHU216HW,2013-05-30 01:11:00,
2013-05-29 18:16:00,70.9,28.9,29.98,SW,225,7.6,15.7,21,0.00,,,0.00,WUHU216HW,2013-05-30 01:16:00,
2013-05-29 18:21:00,70.6,28.6,29.98,SSW,203,3.6,15.7,21,0.00,,,0.00,WUHU216HW,2013-05-30 01:21:00,
2013-05-29 18:26:00,70.6,28.6,29.98,SW,225,12.8,14.3,21,0.00,,,0.00,WUHU216HW,2013-05-30 01:26:00,
2013-05-29 18:31:00,70.2,29.4,29.98,SW,225,11.6,14.3,22,0.00,,,0.00,WUHU216HW,2013-05-30 01:31:00,
2013-05-29 18:36:00,69.8,28.0,29.98,West,270,7.6,15.9,21,0.00,,,0.00,WUHU216HW,2013-05-30 01:36:00,
2013-05-29 18:41:00,69.5,28.7,29.98,WSW,248,11.0,15.9,22,0.00,,,0.00,WUHU216HW,2013-05-30 01:41:00,
2013-05-29 18:46:00,69.5,28.7,29.98,SSW,203,2.7,11.0,22,0.00,,,0.00,WUHU216HW,2013-05-30 01:46:00,
2013-05-29 18:51:00,69.1,28.5,29.99,West,270,4.9,12.5,22,0.00,,,0.00,WUHU216HW,2013-05-30 01:51:00,
2013-05-29 18:56:00,68.8,28.2,29.99,SSW,203,9.6,12.5,22,0.00,,,0.00,WUHU216HW,2013-05-30 01:56:00,
2013-05-29 19:01:00,68.6,28.0,29.99,WSW,248,1.8,11.6,22,0.00,,,0.00,WUHU216HW,2013-05-30 02:01:00,
2013-05-29 19:06:00,68.4,28.8,29.99,West,270,8.7,9.6,23,0.00,,,0.00,WUHU216HW,2013-05-30 02:06:00,
2013-05-29 19:11:00,68.0,28.5,29.99,WSW,248,4.3,8.7,23,0.00,,,0.00,WUHU216HW,2013-05-30 02:11:00,
2013-05-29 19:16:00,67.7,28.3,29.99,SW,225,9.4,11.4,23,0.00,,,0.00,WUHU216HW,2013-05-30 02:16:00,
2013-05-29 19:21:00,67.1,27.7,30.00,West,270,4.0,11.4,23,0.00,,,0.00,WUHU216HW,2013-05-30 02:21:00,
2013-05-29 19:26:00,66.8,27.5,29.99,NW,315,9.4,11.2,23,0.00,,,0.00,WUHU216HW,2013-05-30 02:26:00,
2013-05-29 19:31:00,66.6,27.3,30.00,SSW,203,3.4,9.4,23,0.00,,,0.00,WUHU216HW,2013-05-30 02:31:00,
2013-05-29 19:36:00,66.2,27.0,30.00,SSW,203,3.8,9.4,23,0.00,,,0.00,WUHU216HW,2013-05-30 02:36:00,
2013-05-29 19:41:00,66.1,27.8,30.00,North,0,1.6,6.7,24,0.00,,,0.00,WUHU216HW,2013-05-30 02:41:00,
2013-05-29 19:46:00,65.7,27.6,30.00,SSW,203,2.5,10.7,24,0.00,,,0.00,WUHU216HW,2013-05-30 02:46:00,
2013-05-29 19:51:00,65.3,27.2,30.00,SE,135,1.1,10.7,24,0.00,,,0.00,WUHU216HW,2013-05-30 02:51:00,
2013-05-29 19:56:00,65.2,27.1,30.00,SSW,203,5.1,8.1,24,0.00,,,0.00,WUHU216HW,2013-05-30 02:56:00,
2013-05-29 20:01:00,65.0,26.9,30.01,South,180,4.0,8.7,24,0.00,,,0.00,WUHU216HW,2013-05-30 03:01:00,
2013-05-29 20:06:00,64.8,26.7,30.01,West,270,3.1,8.7,24,0.00,,,0.00,WUHU216HW,2013-05-30 03:06:00,
2013-05-29 20:11:00,64.6,27.6,30.01,WSW,248,4.0,7.6,25,0.00,,,0.00,WUHU216HW,2013-05-30 03:11:00,
2013-05-29 20:16:00,64.4,27.5,30.01,SSE,158,1.3,6.9,25,0.00,,,0.00,WUHU216HW,2013-05-30 03:16:00,
2013-05-29 20:21:00,64.1,27.2,30.01,SSE,158,1.8,5.4,25,0.00,,,0.00,WUHU216HW,2013-05-30 03:21:00,
2013-05-29 20:26:00,63.7,26.8,30.02,SSE,158,1.8,5.1,25,0.00,,,0.00,WUHU216HW,2013-05-30 03:26:00,
2013-05-29 20:31:00,63.4,26.6,30.02,SSE,158,4.7,4.7,25,0.00,,,0.00,WUHU216HW,2013-05-30 03:31:00,
2013-05-29 20:36:00,63.2,26.4,30.03,SW,225,2.5,5.6,25,0.00,,,0.00,WUHU216HW,2013-05-30 03:36:00,
2013-05-29 20:41:00,62.8,26.1,30.02,SSW,203,0.4,5.6,25,0.00,,,0.00,WUHU216HW,2013-05-30 03:41:00,
2013-05-29 20:46:00,62.3,25.7,30.03,SW,225,4.7,4.7,25,0.00,,,0.00,WUHU216HW,2013-05-30 03:46:00,
2013-05-29 20:51:00,61.9,25.3,30.03,SSW,203,1.1,5.4,25,0.00,,,0.00,WUHU216HW,2013-05-30 03:51:00,
2013-05-29 20:56:00,61.6,25.0,30.03,South,180,2.5,5.4,25,0.00,,,0.00,WUHU216HW,2013-05-30 03:56:00,
2013-05-29 21:01:00,61.2,24.7,30.03,SSW,203,0.2,5.4,25,0.00,,,0.00,WUHU216HW,2013-05-30 04:01:00,
2013-05-29 21:06:00,61.0,25.5,30.03,WNW,293,0.7,4.7,26,0.00,,,0.00,WUHU216HW,2013-05-30 04:06:00,
2013-05-29 21:11:00,60.7,26.2,30.04,SW,225,4.5,4.7,27,0.00,,,0.00,WUHU216HW,2013-05-30 04:11:00,
2013-05-29 21:16:00,60.3,25.8,30.04,SSW,203,2.0,4.5,27,0.00,,,0.00,WUHU216HW,2013-05-30 04:16:00,
2013-05-29 21:21:00,59.9,25.6,30.04,WSW,248,0.2,4.5,27,0.00,,,0.00,WUHU216HW,2013-05-30 04:21:00,
2013-05-29 21:26:00,59.8,26.4,30.04,WNW,293,0.4,3.4,28,0.00,,,0.00,WUHU216HW,2013-05-30 04:26:00,
2013-05-29 21:31:00,59.4,26.1,30.04,SW,225,2.0,3.4,28,0.00,,,0.00,WUHU216HW,2013-05-30 04:31:00,
2013-05-29 21:36:00,59.0,25.7,30.05,West,270,0.0,2.2,28,0.00,,,0.00,WUHU216HW,2013-05-30 04:36:00,
2013-05-29 21:41:00,58.9,25.7,30.05,WNW,293,0.0,2.0,28,0.00,,,0.00,WUHU216HW,2013-05-30 04:41:00,
2013-05-29 21:46:00,58.7,26.5,30.05,West,270,0.0,0.4,29,0.00,,,0.00,WUHU216HW,2013-05-30 04:46:00,
2013-05-29 21:51:00,58.3,26.1,30.05,WSW,248,0.0,0.0,29,0.00,,,0.00,WUHU216HW,2013-05-30 04:51:00,
2013-05-29 21:56:00,58.0,25.8,30.05,West,270,0.0,0.0,29,0.00,,,0.00,WUHU216HW,2013-05-30 04:56:00,
2013-05-29 22:01:00,57.4,25.3,30.05,SW,225,0.0,0.0,29,0.00,,,0.00,WUHU216HW,2013-05-30 05:01:00,
2013-05-29 22:06:00,57.1,25.0,30.06,WSW,248,0.0,0.0,29,0.00,,,0.00,WUHU216HW,2013-05-30 05:06:00,
2013-05-29 22:11:00,56.5,24.5,30.06,SW,225,0.0,0.0,29,0.00,,,0.00,WUHU216HW,2013-05-30 05:11:00,
2013-05-29 22:16:00,56.2,25.1,30.06,South,180,0.0,0.9,30,0.00,,,0.00,WUHU216HW,2013-05-30 05:16:00,
2013-05-29 22:21:00,55.6,24.7,30.06,South,180,0.0,0.9,30,0.00,,,0.00,WUHU216HW,2013-05-30 05:21:00,
2013-05-29 22:26:00,55.1,24.2,30.06,South,180,0.0,0.7,30,0.00,,,0.00,WUHU216HW,2013-05-30 05:26:00,
2013-05-29 22:31:00,54.7,24.0,30.06,SSW,203,0.0,0.7,30,0.00,,,0.00,WUHU216HW,2013-05-30 05:31:00,
2013-05-29 22:36:00,54.2,24.1,30.06,South,180,0.0,0.2,31,0.00,,,0.00,WUHU216HW,2013-05-30 05:36:00,
2013-05-29 22:41:00,53.6,23.8,30.06,South,180,0.2,1.1,31,0.00,,,0.00,WUHU216HW,2013-05-30 05:41:00,
2013-05-29 22:46:00,53.3,23.4,30.06,WSW,248,0.4,1.1,31,0.00,,,0.00,WUHU216HW,2013-05-30 05:46:00,
2013-05-29 22:51:00,52.9,23.0,30.06,SSE,158,0.7,1.3,31,0.00,,,0.00,WUHU216HW,2013-05-30 05:51:00,
2013-05-29 22:56:00,52.4,23.3,30.06,SW,225,0.0,1.8,32,0.00,,,0.00,WUHU216HW,2013-05-30 05:56:00,
2013-05-29 23:01:00,51.7,22.6,30.06,NNW,338,0.4,2.7,32,0.00,,,0.00,WUHU216HW,2013-05-30 06:01:00,
2013-05-29 23:06:00,51.1,22.9,30.06,SSE,158,0.0,2.7,33,0.00,,,0.00,WUHU216HW,2013-05-30 06:06:00,
2013-05-29 23:11:00,50.6,23.1,30.06,ESE,113,0.9,2.5,34,0.00,,,0.00,WUHU216HW,2013-05-30 06:11:00,
2013-05-29 23:16:00,50.2,24.0,30.06,WSW,248,0.9,2.7,36,0.00,,,0.00,WUHU216HW,2013-05-30 06:16:00,
2013-05-29 23:21:00,50.0,24.0,30.07,NNW,338,1.3,2.7,36,0.00,,,0.00,WUHU216HW,2013-05-30 06:21:00,
2013-05-29 23:26:00,50.0,24.0,30.07,NNE,23,0.9,1.6,36,0.00,,,0.00,WUHU216HW,2013-05-30 06:26:00,
2013-05-29 23:31:00,50.0,24.6,30.07,SW,225,0.4,1.3,37,0.00,,,0.00,WUHU216HW,2013-05-30 06:31:00,
2013-05-29 23:36:00,50.0,24.6,30.07,SSW,203,1.1,1.8,37,0.00,,,0.00,WUHU216HW,2013-05-30 06:36:00,
2013-05-29 23:41:00,49.9,23.8,30.07,South,180,2.5,2.5,36,0.00,,,0.00,WUHU216HW,2013-05-30 06:41:00,
2013-05-29 23:46:00,49.5,23.4,30.07,WSW,248,0.0,2.5,36,0.00,,,0.00,WUHU216HW,2013-05-30 06:46:00,
2013-05-29 23:51:00,49.3,23.3,30.07,WSW,248,0.4,2.5,36,0.00,,,0.00,WUHU216HW,2013-05-30 06:51:00,
2013-05-29 23:56:00,49.1,23.1,30.07,WSW,248,0.0,0.7,36,0.00,,,0.00,WUHU216HW,2013-05-30 06:56:00,